Bolton Field, OH

12:09 PM EDT on March 25, 2017 (GMT -0400)
Bolton

Weather History for KTZR - February, 2014

Change the Weather History Date:

Wednesday, February 19, 2014

  Actual Average Record
Temperature  
Mean Temperature 36 °F -  
Max Temperature 43 °F 40 °F 59 °F (2016)
Min Temperature 31 °F 26 °F -5 °F (2015)
Degree Days  
Heating Degree Days 28    
Moisture  
Dew Point 32 °F    
Average Humidity 81    
Maximum Humidity 95    
Minimum Humidity 61    
Precipitation  
Precipitation 0.00 in - - ()
Sea Level Pressure  
Sea Level Pressure 29.89 in    
Wind  
Wind Speed 8 mph (SW)    
Max Wind Speed 16 mph    
Max Gust Speed 26 mph    
Visibility 10 miles    
Events Thunderstorm    
Averages and records for this station are not official NWS values.
T = Trace of Precipitation, MM = Missing Value Source: NWS Daily Summary

Daily Weather History Graph

Daily Weather History Graph

Search for Another Location

Airport or City:

Trip Planner

Search our weather history database for the weather conditions in past years. The results will help you decide how hot, cold, wet, or windy it might be!

Date:

Astronomy

Feb. 19, 2014 Rise Set
Actual Time 7:20 AM EST 6:13 PM EST
Civil Twilight 6:52 AM EST 6:40 PM EST
Nautical Twilight 6:21 AM EST 7:12 PM EST
Astronomical Twilight 5:49 AM EST 7:43 PM EST
Moon 11:05 PM EST (2/19) 9:25 AM EST (2/19)
Length of Visible Light 11h 48m
Length of Day
10h 53m
Waning Gibbous, 80% of the Moon is Illuminated
Feb 19
Waning Gibbous
Feb 22
Last Quarter
Mar 1
New
Mar 8
First Quarter
Mar 16
Full

Hourly Weather History & Observations

Time (EST) Temp. Windchill Dew Point Humidity Pressure Visibility Wind Dir Wind Speed Gust Speed Precip Events Conditions
12:55 AM 38.3 °F - 27.3 °F 65% 29.78 in 10.0 mi North - - N/A   Overcast
1:15 AM 38.5 °F - 27.5 °F 65% 29.77 in 10.0 mi North - - N/A   Overcast
1:35 AM 39.9 °F 34.5 °F 27.5 °F 61% 29.76 in 10.0 mi South 8.1 mph - N/A   Overcast
1:55 AM 40.6 °F - 28.6 °F 62% 29.75 in 10.0 mi North - - N/A   Overcast
2:15 AM 41.9 °F 37.5 °F 29.1 °F 61% 29.75 in 10.0 mi SSW 6.9 mph - N/A Thunderstorm Overcast
2:35 AM 41.9 °F 36.9 °F 29.8 °F 62% 29.74 in 10.0 mi SSW 8.1 mph - N/A   Overcast
2:55 AM 41.9 °F - 35.2 °F 77% 29.73 in 10.0 mi North - - N/A   Overcast
3:15 AM 41.9 °F - 37.0 °F 83% 29.72 in 10.0 mi North - - N/A   Overcast
3:35 AM 41.2 °F - 36.9 °F 85% 29.71 in 10.0 mi North - - N/A   Overcast
3:55 AM 41.4 °F - 37.2 °F 85% 29.70 in 10.0 mi North - - N/A   Overcast
4:15 AM 41.0 °F - 37.0 °F 86% 29.69 in 10.0 mi North - - N/A   Overcast
4:35 AM 40.1 °F - 36.7 °F 88% 29.69 in 10.0 mi North - - N/A   Overcast
4:55 AM 39.7 °F - 36.5 °F 88% 29.69 in 10.0 mi North - - N/A   Scattered Clouds
5:15 AM 40.1 °F - 37.4 °F 90% 29.69 in 10.0 mi North - - N/A   Clear
5:35 AM 39.7 °F - 37.6 °F 92% 29.69 in 10.0 mi North - - N/A   Clear
5:55 AM 39.0 °F - 37.2 °F 93% 29.69 in 10.0 mi North - - N/A   Clear
6:15 AM 37.4 °F - 36.1 °F 95% 29.69 in 10.0 mi North - - N/A   Clear
7:20 AM 39.2 °F 34.2 °F 37.4 °F 93% 29.69 in 10.0 mi SSW 6.9 mph - N/A   Clear
7:50 AM 39.2 °F 35.0 °F 37.4 °F 93% 29.71 in 10.0 mi SSW 5.8 mph - N/A   Clear
8:55 AM 42.8 °F 38.6 °F 37.4 °F 81% 29.73 in 10.0 mi SSW 6.9 mph - N/A   Scattered Clouds
9:55 AM 42.8 °F 35.4 °F 35.6 °F 76% 29.77 in 10.0 mi WSW 15.0 mph 18.4 mph N/A   Clear
10:50 AM 42.8 °F 35.1 °F 32.0 °F 66% 29.83 in 10.0 mi West 16.1 mph 26.5 mph N/A   Clear
11:50 AM 42.8 °F 35.4 °F 30.2 °F 61% 29.88 in 10.0 mi West 15.0 mph 25.3 mph N/A   Clear
12:55 PM 41.0 °F 33.5 °F 30.2 °F 65% 29.90 in 10.0 mi West 13.8 mph 19.6 mph N/A   Clear
1:55 PM 41.0 °F 33.1 °F 30.2 °F 65% 29.94 in 10.0 mi West 15.0 mph 24.2 mph N/A   Clear
2:50 PM 41.0 °F 35.2 °F 30.2 °F 65% 29.96 in 10.0 mi WNW 9.2 mph 23.0 mph N/A   Clear
3:47 PM 42.8 °F 40.1 °F 32.0 °F 66% 30.00 in 10.0 mi West 4.6 mph - N/A   Clear
4:47 PM 42.8 °F 38.0 °F 32.0 °F 66% 30.04 in 10.0 mi WSW 8.1 mph - N/A   Clear
6:35 PM 38.5 °F - 31.8 °F 77% 30.10 in 10.0 mi North - - N/A   Clear
6:47 PM 39.2 °F - 32.0 °F 75% 30.10 in 10.0 mi Calm Calm - N/A   Clear
6:55 PM 35.8 °F - 29.7 °F 78% 30.10 in 10.0 mi Calm Calm - N/A   Clear
7:15 PM 35.4 °F - 30.6 °F 82% 30.11 in 10.0 mi North - - N/A   Clear
7:35 PM 32.0 °F - 29.5 °F 90% 30.11 in 10.0 mi North - - N/A   Clear
7:55 PM 32.7 °F - 29.7 °F 88% 30.11 in 10.0 mi North - - N/A   Clear
8:15 PM 32.0 °F - 29.7 °F 91% 30.10 in 10.0 mi North - - N/A   Clear
8:35 PM 32.0 °F - 30.0 °F 92% 30.10 in 10.0 mi North - - N/A   Clear
8:55 PM 32.0 °F - 30.2 °F 93% 30.10 in 10.0 mi North - - N/A   Clear
9:15 PM 33.6 °F 29.4 °F 31.3 °F 91% 30.09 in 10.0 mi East 4.6 mph - N/A   Clear
9:35 PM 34.5 °F 30.4 °F 31.1 °F 87% 30.08 in 10.0 mi East 4.6 mph - N/A   Clear
9:55 PM 34.3 °F 30.2 °F 31.1 °F 88% 30.07 in 10.0 mi East 4.6 mph - N/A   Clear
10:15 PM 32.7 °F - 30.7 °F 92% 30.07 in 10.0 mi Calm Calm - N/A   Clear
10:35 PM 32.9 °F 28.5 °F 30.6 °F 91% 30.06 in 10.0 mi ESE 4.6 mph - N/A   Clear
10:55 PM 32.2 °F 28.9 °F 30.0 °F 92% 30.06 in 7.0 mi SE 3.5 mph - N/A   Clear
11:35 PM 31.8 °F - 29.8 °F 92% 30.09 in 7.0 mi North - - N/A   Clear
11:55 PM 31.6 °F - 29.3 °F 91% 30.08 in 7.0 mi Calm Calm - N/A   Clear